Location: Rowland
(34.5359°N, 79.2929°W)
Time: 14:50:41
(UTC+00:00)

Transit 4A - Pass Details

Date: 10 October 2022
Orbit: 871 x 972 km, 66.8° (Epoch: 29 November)

Event Time Altitude Azimuth Distance (km) Brightness Sun altitude
Rises 23:21:24 0° 151° (SSE) 3,613 10.7 -7.5°
Reaches altitude 10° 23:26:02 10° 120° (ESE) 2,650 9.8 -8.4°
Maximum altitude 23:27:55 11° 102° (ESE) 2,535 9.6 -8.8°
Enters shadow 23:29:04 11° 91° (E) 2,570 9.5 -9.1°
Drops below altitude 10° 23:29:47 10° 84° (E) 2,633 - -9.2°
Sets 23:34:18 0° 53° (NE) 3,554 - -10.1°
